Regional Weather Roundup
Issued by NWS Nashville, TN

Home | Current Version | Previous Version | Text Only | Print | Product List | Glossary On
Versions: 1 2 3 4 5 6 7 8 9 10 11 12 13 14 15 16 17 18 19 20 21 22 23 24 25 26 27
000
ASUS44 KOHX 310510
RWROHX
MIDDLE TENNESSEE HOURLY WEATHER ROUNDUP
NATIONAL WEATHER SERVICE NASHVILLE TN
1200 AM CDT SAT JUL 31 2021

NOTE: "FAIR" INDICATES FEW OR NO CLOUDS BELOW 12,000 FEET WITH
NO SIGNIFICANT WEATHER AND/OR OBSTRUCTIONS TO VISIBILITY.

* THESE REPORTS ARE NOT UNDER NWS QUALITY CONTROL AND MAY NOT
  REPORT WEATHER SUCH AS PRECIPITATION AND FOG.


TNZ005>011-023>034-057-059-062>066-078-080-310600
...NORTHERN MIDDLE TENNESSEE...

CITY           SKY/WX    TMP DP  RH WIND       PRES   REMARKS
CLARKSVILLE    MOCLDY    73  69  87 N5        30.05F
CROSSVILLE     PTCLDY    71  70  96 CALM      30.11R FOG
DICKSON        MOCLDY    75  72  88 NE3       30.05S
GALLATIN       CLOUDY    75  72  88 N5        30.06F
LEBANON        MOCLDY    77  72  83 CALM      30.02S
LIVINGSTON     CLOUDY    72  70  94 CALM      30.06F FOG
NASHVILLE      MOCLDY    79  70  74 N9        30.04F
PORTLAND       CLOUDY    72  70  94 CALM      30.05F
SMYRNA           N/A    N/A N/A N/A MISG        N/A
SPARTA         CLOUDY    73  72  94 CALM      30.06R
SPRINGFIELD    CLOUDY    73  70  88 N6        30.04F
WEST NASHVILLE MOCLDY    79  72  78 N5        30.02F
$$
TNZ056-058-060-061-075>077-079-093>097-310600
...SOUTHERN MIDDLE TENNESSEE...

CITY           SKY/WX    TMP DP  RH WIND       PRES   REMARKS
FAYETTEVILLE   PTCLDY    73  73 100 CALM      30.06F
LAWRENCEBURG   CLOUDY    75  73  94 CALM      30.04F
LEWISBURG      PTCLDY    77  75  94 N3        30.03S
MCMINNVILLE    CLEAR     77  72  83 NE6       30.04F
MURFREESBORO   MOCLDY    79  72  78 N8        30.02S
PULASKI        CLEAR     75  75 100 CALM      30.02F FOG
SHELBYVILLE    CLEAR     75  75 100 CALM      30.04R
TULLAHOMA      PTCLDY    75  73  94 CALM      30.04S
WINCHESTER     PTCLDY    75  72  88 CALM      30.04S
$$


...KEY TO REMARKS...
VSB - VISIBILITY IN MILES
WCI - WIND CHILL INDEX
HX  - HEAT INDEX




USA.gov is the U.S. government's official web portal to all federal, state and local government web resources and services.